SWA194 KDEN-KMCO

Flight info

Callsign SWA194
Flight time N/A
Altitude 35000
Route EPKEE7 DUUZE JAMEY RZC/N0440F370 KM27K MGMRY DEEDA GRNCH5
Aircraft B738/M-SDE2E3FGHIRWXY/LB1

Departure

Time 2026-05-05 14:10
Airport Denver International Airport (KDEN)

Arrival

Time N/A
Airport Orlando International Airport (KMCO)
Time Latitude Longitude Altitude Speed Heading
2026-05-05 13:49 39.86363 -104.67523 5439 ft 0 kts 181°
2026-05-05 14:00 39.86384 -104.67524 5439 ft 3 kts 171°
2026-05-05 14:00 39.86403 -104.67530 5439 ft 3 kts 151°
2026-05-05 14:00 39.86417 -104.67545 5439 ft 3 kts 118°
2026-05-05 14:00 39.86422 -104.67562 5439 ft 1 kts 90°
2026-05-05 14:01 39.86422 -104.67568 5439 ft 0 kts 90°
2026-05-05 14:03 39.86422 -104.67529 5439 ft 9 kts 90°
2026-05-05 14:03 39.86421 -104.67413 5439 ft 14 kts 91°
2026-05-05 14:03 39.86420 -104.67276 5439 ft 15 kts 88°
2026-05-05 14:03 39.86417 -104.67143 5439 ft 16 kts 89°
2026-05-05 14:04 39.86417 -104.66998 5439 ft 17 kts 90°
2026-05-05 14:04 39.86417 -104.66847 5439 ft 18 kts 92°
2026-05-05 14:04 39.86415 -104.66692 5439 ft 15 kts 90°
2026-05-05 14:04 39.86424 -104.66597 5439 ft 8 kts 48°
2026-05-05 14:05 39.86490 -104.66551 5439 ft 12 kts 41°
2026-05-05 14:05 39.86509 -104.66462 5439 ft 11 kts 88°
2026-05-05 14:05 39.86511 -104.66372 5439 ft 8 kts 90°
2026-05-05 14:05 39.86513 -104.66268 5439 ft 13 kts 68°
2026-05-05 14:06 39.86600 -104.66224 5439 ft 18 kts
2026-05-05 14:06 39.86724 -104.66224 5439 ft 16 kts
2026-05-05 14:06 39.86823 -104.66222 5439 ft 14 kts
2026-05-05 14:06 39.86932 -104.66221 5439 ft 15 kts
2026-05-05 14:07 39.87039 -104.66220 5439 ft 17 kts
2026-05-05 14:07 39.87160 -104.66218 5439 ft 18 kts
2026-05-05 14:07 39.87286 -104.66217 5439 ft 18 kts
2026-05-05 14:07 39.87404 -104.66216 5439 ft 17 kts
2026-05-05 14:08 39.87525 -104.66213 5439 ft 18 kts
2026-05-05 14:08 39.87645 -104.66211 5439 ft 14 kts
2026-05-05 14:08 39.87731 -104.66209 5439 ft 10 kts
2026-05-05 14:08 39.87765 -104.66146 5439 ft 10 kts 90°
2026-05-05 14:09 39.87765 -104.66024 5439 ft 20 kts 90°
2026-05-05 14:09 39.87762 -104.65625 5439 ft 70 kts 89°
2026-05-05 14:09 39.87757 -104.64770 5439 ft 120 kts 88°
2026-05-05 14:09 39.87749 -104.63489 5439 ft 162 kts 90°
2026-05-05 14:10 39.87741 -104.61899 5672 ft 181 kts 88°
2026-05-05 14:10 39.87737 -104.60183 6085 ft 201 kts 89°
2026-05-05 14:10 39.87605 -104.58324 6669 ft 209 kts 98°
2026-05-05 14:10 39.87183 -104.56526 7492 ft 204 kts 109°
2026-05-05 14:11 39.86599 -104.54836 7916 ft 214 kts 113°
2026-05-05 14:11 39.85920 -104.53023 8184 ft 230 kts 114°
2026-05-05 14:11 39.85190 -104.51056 8434 ft 250 kts 114°
2026-05-05 14:11 39.84426 -104.48955 8891 ft 262 kts 113°
2026-05-05 14:12 39.83640 -104.46755 9374 ft 274 kts 113°
2026-05-05 14:12 39.82823 -104.44450 9828 ft 287 kts 114°
2026-05-05 14:12 39.81971 -104.42045 9977 ft 295 kts 114°
2026-05-05 14:12 39.81111 -104.39613 10001 ft 294 kts 114°
2026-05-05 14:13 39.80261 -104.37151 10340 ft 304 kts 114°
2026-05-05 14:13 39.79387 -104.34618 10751 ft 318 kts 115°
2026-05-05 14:13 39.78465 -104.31937 11131 ft 331 kts 116°
2026-05-05 14:13 39.77501 -104.29157 11572 ft 343 kts 117°
2026-05-05 14:14 39.76501 -104.26270 11943 ft 356 kts 117°
2026-05-05 14:14 39.75452 -104.23285 12291 ft 370 kts 117°
2026-05-05 14:14 39.74373 -104.20215 12954 ft 373 kts 116°
2026-05-05 14:14 39.73290 -104.17126 13652 ft 377 kts 117°
2026-05-05 14:15 39.72201 -104.14009 14292 ft 381 kts 117°
2026-05-05 14:15 39.71087 -104.10864 14992 ft 384 kts 117°
2026-05-05 14:15 39.69978 -104.07720 15631 ft 389 kts 116°
2026-05-05 14:15 39.68843 -104.04513 16281 ft 393 kts 116°
2026-05-05 14:16 39.67694 -104.01282 16908 ft 397 kts 116°
2026-05-05 14:16 39.66530 -103.98008 17519 ft 401 kts 116°
2026-05-05 14:16 39.65345 -103.94725 18120 ft 404 kts 118°
2026-05-05 14:16 39.64039 -103.91486 18720 ft 407 kts 120°
2026-05-05 14:17 39.62689 -103.88226 19300 ft 411 kts 120°
2026-05-05 14:17 39.61335 -103.84949 19868 ft 414 kts 120°
2026-05-05 14:17 39.59975 -103.81637 20420 ft 418 kts 120°
2026-05-05 14:17 39.58718 -103.78207 20934 ft 423 kts 115°
2026-05-05 14:18 39.57630 -103.74641 21446 ft 427 kts 112°
2026-05-05 14:18 39.56616 -103.71005 21946 ft 431 kts 111°
2026-05-05 14:18 39.55612 -103.67325 22416 ft 435 kts 111°
2026-05-05 14:18 39.54588 -103.63612 22897 ft 438 kts 112°
2026-05-05 14:19 39.53562 -103.59935 23335 ft 442 kts 112°
2026-05-05 14:19 39.52506 -103.56178 23788 ft 445 kts 112°
2026-05-05 14:19 39.51438 -103.52401 24221 ft 448 kts 112°
2026-05-05 14:19 39.50353 -103.48580 24535 ft 455 kts 113°
2026-05-05 14:20 39.49251 -103.44710 24886 ft 460 kts 113°
2026-05-05 14:20 39.48132 -103.40794 25195 ft 466 kts 114°
2026-05-05 14:20 39.47008 -103.36845 25543 ft 470 kts 113°
2026-05-05 14:20 39.45887 -103.32841 25853 ft 476 kts 113°
2026-05-05 14:21 39.44755 -103.28794 26176 ft 480 kts 114°
2026-05-05 14:21 39.43598 -103.24718 26474 ft 485 kts 114°
2026-05-05 14:21 39.42422 -103.20610 26775 ft 489 kts 115°
2026-05-05 14:21 39.41226 -103.16460 27064 ft 494 kts 115°
2026-05-05 14:22 39.40052 -103.12353 27468 ft 495 kts 115°
2026-05-05 14:22 39.38825 -103.08157 27787 ft 500 kts 115°
2026-05-05 14:22 39.37607 -103.03941 28117 ft 503 kts 116°
2026-05-05 14:22 39.36368 -102.99690 28471 ft 505 kts 116°
2026-05-05 14:23 39.35118 -102.95446 28771 ft 508 kts 117°
2026-05-05 14:23 39.33699 -102.91250 28968 ft 510 kts 122°
2026-05-05 14:23 39.32102 -102.87145 29261 ft 512 kts 124°
2026-05-05 14:23 39.30435 -102.83080 29541 ft 515 kts 125°
2026-05-05 14:24 39.28780 -102.78953 29766 ft 520 kts 124°
2026-05-05 14:24 39.27119 -102.74782 30111 ft 522 kts 124°
2026-05-05 14:24 39.25511 -102.70639 30320 ft 525 kts 124°
2026-05-05 14:24 39.23828 -102.66456 30764 ft 523 kts 124°
2026-05-05 14:25 39.22193 -102.62297 31268 ft 520 kts 124°
2026-05-05 14:25 39.20533 -102.58138 31575 ft 521 kts 125°
2026-05-05 14:25 39.18883 -102.53964 31882 ft 523 kts 124°
2026-05-05 14:25 39.17234 -102.49789 32204 ft 523 kts 125°
2026-05-05 14:26 39.13875 -102.41365 32605 ft 530 kts 124°
2026-05-05 14:26 39.12186 -102.37155 32973 ft 528 kts 125°
2026-05-05 14:26 39.10497 -102.32954 33292 ft 528 kts 125°
2026-05-05 14:27 39.08807 -102.28759 33570 ft 529 kts 125°
2026-05-05 14:27 39.07104 -102.24537 33878 ft 529 kts 125°
2026-05-05 14:27 39.05404 -102.20328 34181 ft 529 kts 126°
2026-05-05 14:27 39.03728 -102.16184 34493 ft 528 kts 126°
2026-05-05 14:28 39.02011 -102.11943 34748 ft 529 kts 125°
2026-05-05 14:28 39.00332 -102.07798 35014 ft 530 kts 125°
2026-05-05 14:28 38.96930 -101.99277 35033 ft 533 kts 125°
2026-05-05 14:29 38.93534 -101.90886 35036 ft 531 kts 125°
2026-05-05 14:29 38.90107 -101.82482 35036 ft 531 kts 125°
2026-05-05 14:30 38.87256 -101.75514 35035 ft 531 kts 125°
2026-05-05 14:30 38.83872 -101.67026 35031 ft 535 kts 122°
2026-05-05 14:31 38.80903 -101.58240 35030 ft 537 kts 119°
2026-05-05 14:31 38.77978 -101.49400 35027 ft 537 kts 120°
2026-05-05 14:32 38.75047 -101.40664 35026 ft 537 kts 120°
2026-05-05 14:32 38.72074 -101.31886 35035 ft 538 kts 120°
2026-05-05 14:33 38.69103 -101.23061 35039 ft 539 kts 119°
2026-05-05 14:33 38.66136 -101.14262 35040 ft 538 kts 120°
2026-05-05 14:34 38.63154 -101.05485 35043 ft 537 kts 120°
2026-05-05 14:34 38.60158 -100.96716 35046 ft 537 kts 120°
2026-05-05 14:35 38.57170 -100.88003 35049 ft 538 kts 120°
2026-05-05 14:35 38.54150 -100.79233 35048 ft 538 kts 120°
2026-05-05 14:36 38.51125 -100.70473 35047 ft 539 kts 120°
2026-05-05 14:36 38.48093 -100.61723 35046 ft 539 kts 120°
2026-05-05 14:37 38.45051 -100.52970 35039 ft 540 kts 119°
2026-05-05 14:37 38.41999 -100.44215 35029 ft 539 kts 119°
2026-05-05 14:38 38.38968 -100.35546 35019 ft 540 kts 119°
2026-05-05 14:38 38.35899 -100.26796 35011 ft 540 kts 119°
2026-05-05 14:39 38.32828 -100.18073 35003 ft 540 kts 119°
2026-05-05 14:39 38.29743 -100.09321 34997 ft 540 kts 119°
2026-05-05 14:40 38.26662 -100.00610 34994 ft 539 kts 119°
2026-05-05 14:40 38.23563 -99.91865 34991 ft 544 kts 119°
2026-05-05 14:41 38.20422 -99.83049 34990 ft 548 kts 119°
2026-05-05 14:41 38.17288 -99.74270 34976 ft 542 kts 119°
2026-05-05 14:42 38.14200 -99.65644 34973 ft 538 kts 120°
2026-05-05 14:42 38.11088 -99.56976 34974 ft 540 kts 120°
2026-05-05 14:43 38.07960 -99.48290 34975 ft 540 kts 120°
2026-05-05 14:43 38.04834 -99.39632 34977 ft 539 kts 120°
2026-05-05 14:44 38.01707 -99.30999 34977 ft 538 kts 120°
2026-05-05 14:44 37.98566 -99.22353 34978 ft 540 kts 120°
2026-05-05 14:45 37.95436 -99.13759 34975 ft 539 kts 120°
2026-05-05 14:45 37.92287 -99.05137 34970 ft 539 kts 120°
2026-05-05 14:46 37.89130 -98.96523 34962 ft 537 kts 120°
2026-05-05 14:46 37.86000 -98.88000 34953 ft 538 kts 120°
2026-05-05 14:47 37.82836 -98.79410 34942 ft 538 kts 120°
2026-05-05 14:47 37.79672 -98.70845 34933 ft 537 kts 120°
2026-05-05 14:48 37.76509 -98.62307 34930 ft 537 kts 120°
2026-05-05 14:48 37.73332 -98.53756 34927 ft 535 kts 120°
2026-05-05 14:49 37.70163 -98.45245 34928 ft 536 kts 120°
2026-05-05 14:49 37.66980 -98.36729 34915 ft 535 kts 121°
2026-05-05 14:50 37.63826 -98.28309 34904 ft 534 kts 121°
2026-05-05 14:50 37.60645 -98.19842 34897 ft 534 kts 121°
2026-05-05 14:51 37.57451 -98.11361 34891 ft 534 kts 121°
2026-05-05 14:51 37.54255 -98.02899 34891 ft 534 kts 121°
2026-05-05 14:52 37.51054 -97.94448 34885 ft 534 kts 121°
2026-05-05 14:52 37.47860 -97.86038 34880 ft 536 kts 121°
2026-05-05 14:53 37.44638 -97.77574 34884 ft 536 kts 121°
2026-05-05 14:53 37.41424 -97.69093 34885 ft 537 kts 121°
2026-05-05 14:54 37.38181 -97.60620 34884 ft 537 kts 121°
2026-05-05 14:54 37.34930 -97.52175 34883 ft 537 kts 121°
2026-05-05 14:55 37.31662 -97.43711 34881 ft 539 kts 121°
2026-05-05 14:55 37.28569 -97.35175 34880 ft 543 kts 116°
2026-05-05 14:56 37.25889 -97.26284 34878 ft 544 kts 115°
2026-05-05 14:56 37.23199 -97.17399 34879 ft 545 kts 115°
2026-05-05 14:57 37.20479 -97.08524 34879 ft 544 kts 115°
2026-05-05 14:57 37.17742 -96.99654 34880 ft 545 kts 115°
2026-05-05 14:58 37.15030 -96.90769 34878 ft 546 kts 115°
2026-05-05 14:58 37.12317 -96.81942 34873 ft 545 kts 115°
2026-05-05 14:59 37.09568 -96.73061 34866 ft 546 kts 115°
2026-05-05 14:59 37.06821 -96.64231 34862 ft 547 kts 115°
2026-05-05 15:00 37.04504 -96.56809 34855 ft 547 kts 115°
2026-05-05 15:00 37.01273 -96.46500 34848 ft 547 kts 115°
2026-05-05 15:01 36.98488 -96.37641 34847 ft 547 kts 115°
2026-05-05 15:01 36.95693 -96.28782 34846 ft 549 kts 115°
2026-05-05 15:02 36.92880 -96.19896 34845 ft 548 kts 115°
2026-05-05 15:02 36.90069 -96.11039 34851 ft 549 kts 115°
2026-05-05 15:03 36.87244 -96.02168 34851 ft 550 kts 116°
2026-05-05 15:03 36.84421 -95.93332 34850 ft 550 kts 115°
2026-05-05 15:04 36.81575 -95.84446 34845 ft 550 kts 115°
2026-05-05 15:04 36.78717 -95.75536 34842 ft 556 kts 115°
2026-05-05 15:05 36.74368 -95.62060 34825 ft 559 kts 115°
2026-05-05 15:06 36.71495 -95.53191 34806 ft 551 kts 115°
2026-05-05 15:06 36.68607 -95.44295 34795 ft 556 kts 115°
2026-05-05 15:07 36.65682 -95.35324 34785 ft 558 kts 115°
2026-05-05 15:07 36.62771 -95.26417 34784 ft 554 kts 116°
2026-05-05 15:08 36.59856 -95.17538 34787 ft 553 kts 116°
2026-05-05 15:08 36.56957 -95.08727 34774 ft 554 kts 116°
2026-05-05 15:09 36.54037 -94.99858 34764 ft 553 kts 116°
2026-05-05 15:09 36.51115 -94.91044 34764 ft 549 kts 115°
2026-05-05 15:10 36.48192 -94.82216 34772 ft 555 kts 116°
2026-05-05 15:10 36.45237 -94.73378 34770 ft 552 kts 116°
2026-05-05 15:11 36.42304 -94.64553 34770 ft 553 kts 116°
2026-05-05 15:11 36.39355 -94.55734 34767 ft 553 kts 115°
2026-05-05 15:12 36.36427 -94.46994 34763 ft 551 kts 115°
2026-05-05 15:12 36.33488 -94.38188 34776 ft 554 kts 116°
2026-05-05 15:13 36.30510 -94.29395 34773 ft 555 kts 116°
2026-05-05 15:13 36.27518 -94.20596 34774 ft 554 kts 116°
2026-05-05 15:14 36.24507 -94.11775 34787 ft 554 kts 117°
2026-05-05 15:14 36.21172 -94.03207 34790 ft 552 kts 121°
2026-05-05 15:15 36.17726 -93.94730 34791 ft 549 kts 121°
2026-05-05 15:15 36.14875 -93.87707 34786 ft 550 kts 121°
2026-05-05 15:16 36.11429 -93.79214 34781 ft 551 kts 121°
2026-05-05 15:16 36.08023 -93.70753 34777 ft 549 kts 120°
2026-05-05 15:17 36.04634 -93.62303 34784 ft 549 kts 120°
2026-05-05 15:17 36.01214 -93.53824 34783 ft 551 kts 121°
2026-05-05 15:18 35.97807 -93.45407 34785 ft 547 kts 121°
2026-05-05 15:18 35.94383 -93.37007 34792 ft 549 kts 121°
2026-05-05 15:19 35.90949 -93.28564 34793 ft 549 kts 121°
2026-05-05 15:19 35.87533 -93.20211 34791 ft 549 kts 121°
2026-05-05 15:20 35.84092 -93.11806 34799 ft 549 kts 121°
2026-05-05 15:20 35.80653 -93.03434 34809 ft 547 kts 121°
2026-05-05 15:21 35.77189 -92.95030 34806 ft 548 kts 121°
2026-05-05 15:21 35.73759 -92.86722 34811 ft 545 kts 121°
2026-05-05 15:22 35.70303 -92.78388 34816 ft 549 kts 121°
2026-05-05 15:22 35.66824 -92.70008 34813 ft 548 kts 121°
2026-05-05 15:23 35.63363 -92.61673 34819 ft 546 kts 121°
2026-05-05 15:23 35.59887 -92.53317 34819 ft 551 kts 121°
2026-05-05 15:24 35.56397 -92.44980 34819 ft 546 kts 121°
2026-05-05 15:24 35.52951 -92.36772 34819 ft 542 kts 121°
2026-05-05 15:25 35.49489 -92.28540 34820 ft 543 kts 121°
2026-05-05 15:25 35.46010 -92.20286 34824 ft 543 kts 121°
2026-05-05 15:26 35.42537 -92.12063 34828 ft 543 kts 121°
2026-05-05 15:26 35.39078 -92.03894 34831 ft 543 kts 121°
2026-05-05 15:27 35.35587 -91.95672 34834 ft 543 kts 121°
2026-05-05 15:27 35.32089 -91.87454 34837 ft 544 kts 121°
2026-05-05 15:28 35.28553 -91.79168 34841 ft 552 kts 121°
2026-05-05 15:28 35.25000 -91.70851 34837 ft 549 kts 121°
2026-05-05 15:29 35.21463 -91.62601 34840 ft 543 kts 121°
2026-05-05 15:29 35.17954 -91.54431 34842 ft 543 kts 121°
2026-05-05 15:30 35.14434 -91.46257 34846 ft 543 kts 121°
2026-05-05 15:30 35.10929 -91.38140 34849 ft 543 kts 121°
2026-05-05 15:31 35.07400 -91.29987 34853 ft 543 kts 121°
2026-05-05 15:31 35.03863 -91.21831 34857 ft 543 kts 121°
2026-05-05 15:32 35.00316 -91.13676 34866 ft 543 kts 121°
2026-05-05 15:32 34.96780 -91.05561 34877 ft 546 kts 121°
2026-05-05 15:33 34.93278 -90.97549 34880 ft 543 kts 121°
2026-05-05 15:33 34.89729 -90.89445 34883 ft 542 kts 121°
2026-05-05 15:34 34.86167 -90.81334 34886 ft 543 kts 121°
2026-05-05 15:34 34.82599 -90.73207 34886 ft 547 kts 120°
2026-05-05 15:35 34.79011 -90.65066 34892 ft 549 kts 121°
2026-05-05 15:35 34.75405 -90.56924 34891 ft 543 kts 121°
2026-05-05 15:36 34.71809 -90.48783 34898 ft 551 kts 121°
2026-05-05 15:36 34.68143 -90.40537 34901 ft 557 kts 120°
2026-05-05 15:37 34.64447 -90.32263 34901 ft 556 kts 120°
2026-05-05 15:37 34.60805 -90.24053 34901 ft 548 kts 121°
2026-05-05 15:38 34.57177 -90.15957 34908 ft 544 kts 121°
2026-05-05 15:38 34.53541 -90.07871 34916 ft 546 kts 121°
2026-05-05 15:39 34.49848 -89.99813 34913 ft 553 kts 125°
2026-05-05 15:39 34.45461 -89.92156 34934 ft 556 kts 130°
2026-05-05 15:40 34.40923 -89.84578 34945 ft 553 kts 130°
2026-05-05 15:40 34.36442 -89.77055 34958 ft 548 kts 130°
2026-05-05 15:41 34.32004 -89.69621 34969 ft 544 kts 130°
2026-05-05 15:41 34.27571 -89.62165 34979 ft 549 kts 130°
2026-05-05 15:42 34.23131 -89.54677 34979 ft 552 kts 129°
2026-05-05 15:42 34.18643 -89.47128 34980 ft 553 kts 129°
2026-05-05 15:43 34.14164 -89.39636 34977 ft 546 kts 129°
2026-05-05 15:43 34.09717 -89.32207 34983 ft 546 kts 130°
2026-05-05 15:44 34.05278 -89.24793 34981 ft 547 kts 130°
2026-05-05 15:44 34.00805 -89.17357 34987 ft 548 kts 130°
2026-05-05 15:45 33.96336 -89.09953 34981 ft 545 kts 129°
2026-05-05 15:45 33.91886 -89.02564 34986 ft 543 kts 129°
2026-05-05 15:46 33.87418 -88.95161 34997 ft 548 kts 129°
2026-05-05 15:46 33.82916 -88.87738 34993 ft 548 kts 129°
2026-05-05 15:47 33.78412 -88.80320 34992 ft 549 kts 129°
2026-05-05 15:47 33.73944 -88.72976 34982 ft 546 kts 129°
2026-05-05 15:48 33.69445 -88.65613 34985 ft 547 kts 129°
2026-05-05 15:48 33.64938 -88.58233 34982 ft 548 kts 129°
2026-05-05 15:49 33.60418 -88.50849 34987 ft 549 kts 129°
2026-05-05 15:49 33.55915 -88.43502 34989 ft 549 kts 129°
2026-05-05 15:50 33.51372 -88.36116 34994 ft 548 kts 129°
2026-05-05 15:50 33.46839 -88.28766 35001 ft 547 kts 129°
2026-05-05 15:51 33.42343 -88.21467 34998 ft 548 kts 130°
2026-05-05 15:51 33.37809 -88.14147 34993 ft 547 kts 130°
2026-05-05 15:52 33.33260 -88.06805 34994 ft 549 kts 130°
2026-05-05 15:52 33.28725 -87.99514 34989 ft 544 kts 130°
2026-05-05 15:53 33.24215 -87.92258 34990 ft 547 kts 129°
2026-05-05 15:53 33.19681 -87.84982 34987 ft 544 kts 129°
2026-05-05 15:54 33.15141 -87.77713 34986 ft 547 kts 129°
2026-05-05 15:54 33.10576 -87.70418 34980 ft 548 kts 129°
2026-05-05 15:55 33.06030 -87.63160 34985 ft 546 kts 129°
2026-05-05 15:55 33.01512 -87.55972 34993 ft 546 kts 129°
2026-05-05 15:56 32.96941 -87.48715 34999 ft 543 kts 129°
2026-05-05 15:56 32.92432 -87.41554 35010 ft 544 kts 129°
2026-05-05 15:57 32.87872 -87.34340 35021 ft 545 kts 129°
2026-05-05 15:57 32.83318 -87.27149 35030 ft 543 kts 129°
2026-05-05 15:58 32.78755 -87.19960 35044 ft 546 kts 129°
2026-05-05 15:58 32.74167 -87.12739 35050 ft 549 kts 129°
2026-05-05 15:59 32.69575 -87.05525 35052 ft 542 kts 129°
2026-05-05 15:59 32.65801 -86.99610 35061 ft 541 kts 130°
2026-05-05 16:00 32.60470 -86.91266 35071 ft 548 kts 129°
2026-05-05 16:00 32.56631 -86.85274 35069 ft 542 kts 129°
2026-05-05 16:01 32.52092 -86.78195 35074 ft 544 kts 129°
2026-05-05 16:01 32.47529 -86.71095 35082 ft 539 kts 129°
2026-05-05 16:02 32.42992 -86.64057 35087 ft 537 kts 129°
2026-05-05 16:02 32.38468 -86.56997 35094 ft 539 kts 129°
2026-05-05 16:03 32.33918 -86.49954 35086 ft 536 kts 129°
2026-05-05 16:03 32.29387 -86.42974 35084 ft 535 kts 129°
2026-05-05 16:04 32.24859 -86.36004 35086 ft 534 kts 129°
2026-05-05 16:04 32.20558 -86.28854 35091 ft 535 kts 123°
2026-05-05 16:05 32.16816 -86.21273 35092 ft 534 kts 120°
2026-05-05 16:05 32.13148 -86.13635 35093 ft 534 kts 120°
2026-05-05 16:06 32.09448 -86.06049 35095 ft 533 kts 120°
2026-05-05 16:06 32.05728 -85.98480 35098 ft 533 kts 120°
2026-05-05 16:07 32.02043 -85.90960 35099 ft 533 kts 120°
2026-05-05 16:07 31.98318 -85.83390 35099 ft 533 kts 120°
2026-05-05 16:08 31.94583 -85.75837 35099 ft 533 kts 120°
2026-05-05 16:08 31.90843 -85.68297 35100 ft 533 kts 120°
2026-05-05 16:09 31.87095 -85.60757 35105 ft 533 kts 120°
2026-05-05 16:09 31.83343 -85.53230 35110 ft 534 kts 120°
2026-05-05 16:10 31.79581 -85.45697 35112 ft 533 kts 120°
2026-05-05 16:10 31.75844 -85.38229 35119 ft 533 kts 120°
2026-05-05 16:11 31.72087 -85.30709 35122 ft 533 kts 120°
2026-05-05 16:12 31.64535 -85.15682 35123 ft 534 kts 120°
2026-05-05 16:13 31.55620 -84.96636 35124 ft 533 kts 109°
2026-05-05 16:13 31.53112 -84.88408 35123 ft 537 kts 106°
2026-05-05 16:14 31.48138 -84.71942 35122 ft 535 kts 106°
2026-05-05 16:15 31.43081 -84.55492 35121 ft 541 kts 106°
2026-05-05 16:16 31.38021 -84.39054 35118 ft 534 kts 106°
2026-05-05 16:17 31.34192 -84.26724 35121 ft 540 kts 107°
2026-05-05 16:18 31.30316 -84.14367 35121 ft 539 kts 107°
2026-05-05 16:19 31.28632 -84.08986 35121 ft 539 kts 106°